FREGAT DEB, 45635

Orbit data source: Space-Track

FREGAT DEB, 45635 is space debris in LEO originally from a launch on Mon, 18 Jul 2011 UTC launched from the Tyuratam Missile And Space Complex (TTMTR). Debris objects in space refer to the collection of defunct objects orbiting the Earth. Examples of debris include non-operational satellites, rocket bodies, and fragments generated from explosions, collisions, or faulty payload assembly.

Loading next visibility...
Identifier
45635, 2011-037AB
Orbit
LEO
Country
Flag of CISCIS
Related business
Manufacturer
Lavochkin
Mission
Spacecraft
Bus & Motor
Unknown
Mass
Unknown
Launch date (UTC)
2011-07-18 (14 years ago)
Launch vehicle
Unknown
Launch site
Tyuratam Missile And Space Complex (TTMTR)
Object type
Payload
Rocket body
Debris
Shape & HBR
Unknown
Radar Cross Section
Small (<0.1 m²)

Expand to show TLE details & history
Last TLE update: 2 days ago

TLE from 2 days ago
0 FREGAT DEB
1 45635U 11037AB  25244.47840645  .00080370  00000-0  13623-1 0  9994
2 45635  51.2796 305.1304 1057695 308.7632  42.3245 13.02108628222437
Epoch: 2025-09-01T11:28Z
TLE epoch observation values (Epoch: 2025-09-01T11:28:54.317Z)
Latitude
Longitude
152.02066°
Altitude
701.306 km
Speed
7.773 km/s
True Right ascension
20h 20m 31s
True Declination
0° 00' 00"
Sunlit
Object was in full shadow at epoch
Visualization orbit readout
Latitude
Unknown
Longitude
Unknown
Altitude
Unknown
Speed
Unknown
Apparent Right ascension
Unknown
Apparent Declination
Unknown
Sunlit
N/A
Visualization observer readout
Local Sidereal Time
19:27:00
Azimuth
Unknown
Elevation
Unknown
Doppler factor
Unknown
Orbital elements
Apogee altitude
2,061.639 km
Perigee altitude
447.07 km
Semi-major axis
7,632.491 km
Eccentricity
0.10577
Inclination
51.2796°
RAAN
305.1304°
Arg. of periapsis
308.7632°
True anomaly
51.32765°
Mean anomaly
42.3245°
Eccentric anomaly
46.73764°
Mean motion
3.25495 °/min
Orbital period
110.6 mins
BSTAR
0.013623
Loading maneuver chart data...
Computing Atmospheric mass density...
Loading historical data...
Loading historical data...
Loading historical data...
Loading historical data...
Loading historical data...
Loading historical data...
Loading historical data...

Documentation

Showing up to 5 results
|